Henry Tift Myers AP, Tifton,, GA

8:13 PM EST on December 07, 2019 (GMT -0500)
Myers

Weather History for KTMA - October, 2019

Change the Weather History Date:

Saturday, October 19, 2019

  Actual Average Record
Temperature  
Mean Temperature 70 °F -  
Max Temperature 76 °F 78 °F 87 °F (2016)
Min Temperature 64 °F 53 °F 43 °F (2015)
Cooling Degree Days 5    
Growing Degree Days 20 (Base 50)    
Moisture  
Dew Point 68 °F    
Average Humidity 94    
Maximum Humidity 98    
Minimum Humidity 71    
Precipitation  
Precipitation 0.00 in - - ()
Sea Level Pressure  
Sea Level Pressure 29.74 in    
Wind  
Wind Speed 7 mph ()    
Max Wind Speed 15 mph    
Max Gust Speed 25 mph    
Visibility 8.3 miles    
Events Rain , Thunderstorm    
Averages and records for this station are not official NWS values.
T = Trace of Precipitation, MM = Missing Value Source: Averaged Metar Reports

Daily Weather History Graph

Daily Weather History Graph

Search for Another Location

Airport or City:

Astronomy

Oct. 19, 2019 Rise Set
Actual Time 7:39 AM EDT 6:57 PM EDT
Civil Twilight 7:15 AM EDT 7:22 PM EDT
Nautical Twilight 6:46 AM EDT 7:50 PM EDT
Astronomical Twilight 6:18 AM EDT 8:18 PM EDT
Moon 11:20 PM EDT (10/19) 12:55 PM EDT (10/19)
Length of Visible Light 12h 07m
Length of Day
11h 18m
Waning Gibbous, 70% of the Moon is Illuminated
Oct 19
Waning Gibbous
Oct 21
Last Quarter
Oct 27
New
Nov 4
First Quarter
Nov 12
Full

Hourly Weather History & Observations

Time (EDT) Temp. Dew Point Humidity Pressure Visibility Wind Dir Wind Speed Gust Speed Precip Events Conditions
12:15 AM 67.1 °F 57.4 °F 71% 29.91 in 10.0 mi ESE 5.8 mph - N/A   Scattered Clouds
12:35 AM 66.7 °F 58.1 °F 74% 29.91 in 10.0 mi ESE 5.8 mph - N/A   Mostly Cloudy
12:55 AM 66.6 °F 58.6 °F 76% 29.91 in 10.0 mi East 4.6 mph - N/A   Overcast
1:15 AM 65.8 °F 59.0 °F 79% 29.90 in 10.0 mi ESE 5.8 mph - N/A   Overcast
1:35 AM 66.0 °F 59.9 °F 81% 29.90 in 10.0 mi ESE 5.8 mph - N/A   Drizzle
1:55 AM 65.5 °F 59.9 °F 82% 29.89 in 10.0 mi East 5.8 mph - N/A   Overcast
2:15 AM 65.5 °F 60.1 °F 83% 29.88 in 10.0 mi East 5.8 mph - N/A   Overcast
2:35 AM 65.7 °F 60.4 °F 83% 29.87 in 10.0 mi East 6.9 mph - N/A Rain Light Rain
2:55 AM 65.5 °F 60.8 °F 85% 29.87 in 10.0 mi East 4.6 mph - N/A   Light Drizzle
3:15 AM 65.8 °F 61.3 °F 85% 29.86 in 10.0 mi East 6.9 mph - N/A   Overcast
3:35 AM 66.2 °F 61.7 °F 85% 29.86 in 10.0 mi East 8.1 mph - N/A Rain Light Rain
3:55 AM 64.6 °F 62.6 °F 93% 29.84 in 10.0 mi East 5.8 mph - N/A Rain Light Rain
4:15 AM 64.0 °F 63.0 °F 96% 29.84 in 7.0 mi East 5.8 mph - N/A Rain Rain
4:35 AM 64.4 °F 63.7 °F 98% 29.83 in 7.0 mi East 5.8 mph - N/A Rain Rain
4:55 AM 64.6 °F 64.0 °F 98% 29.83 in 10.0 mi East 5.8 mph - N/A Rain Light Rain
5:15 AM 65.3 °F 64.8 °F 98% 29.83 in 5.0 mi ESE 6.9 mph - N/A Rain Light Rain
5:35 AM 66.2 °F 65.3 °F 97% 29.83 in 10.0 mi ESE 8.1 mph - N/A   Drizzle
5:55 AM 66.2 °F 65.5 °F 98% 29.82 in 10.0 mi East 6.9 mph - N/A Rain Rain
6:15 AM 66.6 °F 65.7 °F 97% 29.83 in 10.0 mi East 8.1 mph - N/A Rain Rain
6:35 AM 66.6 °F 66.0 °F 98% 29.83 in 10.0 mi East 6.9 mph - N/A Rain Rain
6:55 AM 67.1 °F 66.2 °F 97% 29.82 in 10.0 mi East 6.9 mph - N/A   Drizzle
7:15 AM 67.1 °F 66.2 °F 97% 29.82 in 10.0 mi East 8.1 mph - N/A   Drizzle
7:35 AM 67.1 °F 66.4 °F 98% 29.82 in 7.0 mi ESE 8.1 mph - N/A Rain Light Rain
7:55 AM 67.3 °F 66.4 °F 97% 29.82 in 10.0 mi East 8.1 mph - N/A   Overcast
8:15 AM 67.5 °F 66.6 °F 97% 29.82 in 10.0 mi East 5.8 mph - N/A   Overcast
8:35 AM 67.6 °F 66.4 °F 96% 29.83 in 10.0 mi SE 8.1 mph - N/A Rain Rain
8:55 AM 67.6 °F 66.9 °F 98% 29.83 in 3.0 mi ESE 9.2 mph - N/A Rain Heavy Rain
9:15 AM 67.6 °F 67.1 °F 98% 29.82 in 5.0 mi East 8.1 mph - N/A Rain Rain
9:35 AM 68.0 °F 67.1 °F 97% 29.82 in 10.0 mi East 8.1 mph - N/A   Light Drizzle
9:55 AM 68.2 °F 67.3 °F 97% 29.82 in 10.0 mi ESE 10.4 mph 17.3 mph N/A Rain Light Rain
10:15 AM 68.5 °F 67.5 °F 96% 29.81 in 10.0 mi ESE 8.1 mph 16.1 mph N/A   Light Drizzle
10:35 AM 68.9 °F 67.6 °F 96% 29.81 in 10.0 mi ESE 8.1 mph 16.1 mph N/A   Overcast
10:55 AM 69.3 °F 68.0 °F 96% 29.80 in 10.0 mi ESE 10.4 mph 17.3 mph N/A   Overcast
11:15 AM 69.8 °F 68.2 °F 95% 29.80 in 10.0 mi East 8.1 mph - N/A   Overcast
11:35 AM 69.8 °F 68.4 °F 95% 29.79 in 7.0 mi ESE 8.1 mph 16.1 mph N/A   Overcast
11:55 AM 70.7 °F 68.9 °F 94% 29.79 in 10.0 mi East 9.2 mph 18.4 mph N/A   Overcast
12:15 PM 70.9 °F 68.9 °F 93% 29.77 in 4.0 mi ESE 9.2 mph 17.3 mph N/A Rain Light Rain
12:35 PM 70.7 °F 69.6 °F 96% 29.75 in 5.0 mi ESE 10.4 mph - N/A Rain Rain
12:55 PM 70.7 °F 69.8 °F 97% 29.75 in 5.0 mi ESE 8.1 mph 17.3 mph N/A Rain Light Rain
1:15 PM 70.9 °F 70.0 °F 97% 29.73 in 4.0 mi ESE 6.9 mph - N/A Rain Light Rain
1:35 PM 71.6 °F 70.7 °F 97% 29.72 in 5.0 mi ESE 8.1 mph - N/A   Overcast
1:55 PM 71.6 °F 70.7 °F 97% 29.70 in 7.0 mi ESE 9.2 mph - N/A Rain Light Rain
2:15 PM 72.1 °F 71.1 °F 96% 29.68 in 10.0 mi East 6.9 mph - N/A   Overcast
2:35 PM 72.5 °F 71.1 °F 95% 29.67 in 10.0 mi ESE 4.6 mph - N/A   Overcast
2:55 PM 72.7 °F 71.4 °F 96% 29.66 in 7.0 mi SE 9.2 mph 19.6 mph N/A   Overcast
3:15 PM 72.9 °F 71.6 °F 96% 29.63 in 10.0 mi East 6.9 mph - N/A Rain Light Rain
3:35 PM 72.9 °F 71.8 °F 96% 29.64 in 10.0 mi ESE 6.9 mph 16.1 mph N/A Rain Light Rain
3:55 PM 72.9 °F 72.1 °F 98% 29.62 in 7.0 mi ESE 4.6 mph - N/A   Overcast
4:15 PM 73.0 °F 72.5 °F 98% 29.61 in 7.0 mi East 8.1 mph - N/A   Drizzle
4:35 PM 73.4 °F 72.5 °F 97% 29.59 in 7.0 mi ESE 8.1 mph - N/A   Light Drizzle
4:55 PM 73.4 °F 72.5 °F 97% 29.58 in 7.0 mi ESE 8.1 mph - N/A Thunderstorm Thunderstorm
5:15 PM 73.6 °F 72.5 °F 96% 29.58 in 10.0 mi SE 11.5 mph 16.1 mph N/A   Overcast
5:35 PM 73.6 °F 72.7 °F 97% 29.58 in 5.0 mi SE 8.1 mph - N/A Rain Light Rain
5:55 PM 73.8 °F 73.0 °F 98% 29.56 in 10.0 mi SE 9.2 mph 17.3 mph N/A Rain , Thunderstorm Light Thunderstorms and Rain
6:15 PM 74.3 °F 73.4 °F 97% 29.56 in 10.0 mi SE 13.8 mph 18.4 mph N/A   Overcast
6:35 PM 75.0 °F 73.4 °F 95% 29.56 in 10.0 mi SE 12.7 mph 19.6 mph N/A Thunderstorm Overcast
6:55 PM 75.2 °F 73.8 °F 95% 29.56 in 10.0 mi SSE 12.7 mph - N/A   Overcast
7:15 PM 76.1 °F 73.9 °F 93% 29.57 in 10.0 mi SSE 15.0 mph - N/A   Overcast
7:35 PM 76.5 °F 73.4 °F 90% 29.57 in 10.0 mi South 13.8 mph 23.0 mph N/A Thunderstorm Thunderstorm
7:55 PM 76.1 °F 72.9 °F 90% 29.58 in 10.0 mi South 13.8 mph 24.2 mph N/A Rain Rain
8:15 PM - - N/A% 29.58 in - South 12.7 mph - N/A   Unknown
8:35 PM 75.6 °F 71.6 °F 87% 29.59 in 10.0 mi South 12.7 mph 24.2 mph N/A Rain , Thunderstorm Light Thunderstorms and Rain
8:55 PM 73.6 °F 72.0 °F 95% 29.59 in 5.0 mi South 13.8 mph 23.0 mph N/A Rain Light Rain
9:15 PM 73.0 °F 71.8 °F 96% 29.59 in 10.0 mi South 13.8 mph 21.9 mph N/A   Overcast
9:35 PM 72.9 °F 71.8 °F 96% 29.59 in 7.0 mi South 15.0 mph 20.7 mph N/A   Overcast
9:55 PM 72.5 °F 71.8 °F 98% 29.60 in 4.0 mi SSW 11.5 mph 23.0 mph N/A   Light Drizzle
10:15 PM 72.7 °F 72.0 °F 98% 29.61 in 5.0 mi SW 11.5 mph 18.4 mph N/A   Light Drizzle
10:35 PM 70.2 °F 69.3 °F 97% 29.64 in 10.0 mi WSW 13.8 mph 25.3 mph N/A   Overcast
10:55 PM 68.7 °F 68.0 °F 98% 29.66 in 3.0 mi WSW 12.7 mph 21.9 mph N/A   Overcast
11:15 PM 67.5 °F 66.6 °F 97% 29.68 in 5.0 mi WSW 12.7 mph 19.6 mph N/A   Overcast
11:35 PM 66.6 °F 65.8 °F 98% 29.68 in 5.0 mi SW 9.2 mph 16.1 mph N/A   Overcast
11:55 PM 66.4 °F 65.3 °F 96% 29.69 in 5.0 mi SW 11.5 mph - N/A   Overcast